Concord, NH

11:42 PM EDT on August 25, 2016 (GMT -0400)
Concord Municipal

Weather History for KCON - May, 2012

Change the Weather History Date:

Tuesday, May 1, 2012

  Actual Average Record
Temperature  
Mean Temperature 46 °F 51 °F  
Max Temperature 51 °F 64 °F 88 °F (1970)
Min Temperature 41 °F 38 °F 24 °F (2008)
Degree Days  
Heating Degree Days 19 14  
Month to date heating degree days 19 14  
Since 1 July heating degree days 5760 6861  
Cooling Degree Days 0 0  
Month to date cooling degree days 0 0  
Year to date cooling degree days 9 2  
Moisture  
Dew Point 41 °F    
Average Humidity 74    
Maximum Humidity 100    
Minimum Humidity 48    
Precipitation  
Precipitation 0.79 in 0.11 in 0.90 in (1953)
Month to date precipitation 0.79 0.11  
Year to date precipitation 9.36 12.11  
Snow  
Snow 0.00 in 0.00 in 1.00 in (1869)
Month to date snowfall 0.0 0.0  
Since 1 July snowfall 48.9 61.4  
Snow Depth 0.00 in    
Sea Level Pressure  
Sea Level Pressure 30.14 in    
Wind  
Wind Speed 5 mph (East)    
Max Wind Speed 12 mph    
Max Gust Speed 20 mph    
Visibility 6 miles    
Events Rain    
T = Trace of Precipitation, MM = Missing Value Source: NWS Daily Summary

Daily Weather History Graph

Daily Weather History Graph

Search for Another Location

Airport or City:

Trip Planner

Search our weather history database for the weather conditions in past years. The results will help you decide how hot, cold, wet, or windy it might be!

Date:

Astronomy

May. 01, 2012 Rise Set
Actual Time 5:38 AM EDT 7:48 PM EDT
Civil Twilight 5:07 AM EDT 8:19 PM EDT
Nautical Twilight 4:29 AM EDT 8:57 PM EDT
Astronomical Twilight 3:46 AM EDT 9:40 PM EDT
Moon 2:40 PM EDT (5/1) 2:43 AM EDT (5/1)
Length of Visible Light 15h 11m
Length of Day
14h 09m
Waxing Gibbous, 73% of the Moon is Illuminated
May 1
Waxing Gibbous
May 5
Full
May 12
Last Quarter
May 20
New
May 28
First Quarter

Hourly Weather History & Observations

Time (EDT) Temp. Windchill Dew Point Humidity Pressure Visibility Wind Dir Wind Speed Gust Speed Precip Events Conditions
12:51 AM 51.1 °F - 32.0 °F 48% 30.19 in 10.0 mi SSE 5.8 mph - N/A   Overcast
1:51 AM 50.0 °F - 32.0 °F 50% 30.18 in 10.0 mi South 6.9 mph - N/A   Overcast
2:51 AM 48.0 °F - 36.0 °F 63% 30.18 in 10.0 mi Calm Calm - 0.00 in Rain Light Rain
3:51 AM 46.9 °F - 37.0 °F 68% 30.18 in 10.0 mi ESE 3.5 mph - 0.01 in Rain Light Rain
4:51 AM 45.0 °F 41.2 °F 39.9 °F 82% 30.17 in 10.0 mi SSE 6.9 mph - 0.02 in Rain Light Rain
5:51 AM 42.1 °F 38.4 °F 39.9 °F 92% 30.19 in 4.0 mi South 5.8 mph - 0.05 in Rain Rain
6:51 AM 41.0 °F 38.0 °F 39.0 °F 93% 30.17 in 10.0 mi SE 4.6 mph - 0.09 in   Overcast
7:10 AM 41.0 °F 37.1 °F 39.2 °F 93% 30.15 in 5.0 mi SE 5.8 mph - 0.00 in Rain Rain
7:51 AM 42.1 °F 37.1 °F 39.9 °F 92% 30.16 in 4.0 mi SSE 8.1 mph - 0.06 in Rain Light Rain
8:51 AM 41.0 °F 37.1 °F 39.0 °F 93% 30.16 in 4.0 mi SE 5.8 mph - 0.09 in Rain Rain
9:26 AM 42.8 °F 40.1 °F 39.2 °F 87% 30.15 in 2.5 mi SE 4.6 mph - 0.05 in Rain Rain
9:35 AM 41.0 °F 38.0 °F 39.2 °F 93% 30.15 in 3.0 mi SE 4.6 mph - 0.06 in Rain Rain
9:51 AM 42.1 °F 39.2 °F 39.9 °F 92% 30.15 in 3.0 mi ESE 4.6 mph - 0.10 in Rain Rain
10:26 AM 42.8 °F 39.3 °F 41.0 °F 93% 30.13 in 3.0 mi ESE 5.8 mph - 0.07 in Rain Rain
10:37 AM 42.8 °F 41.1 °F 41.0 °F 93% 30.13 in 2.5 mi Variable 3.5 mph - 0.10 in Rain Rain
10:51 AM 43.0 °F 41.3 °F 41.0 °F 93% 30.15 in 2.0 mi ENE 3.5 mph - 0.15 in Rain Rain
11:15 AM 42.8 °F 39.3 °F 41.0 °F 93% 30.14 in 3.0 mi East 5.8 mph - 0.10 in Rain Rain
11:23 AM 42.8 °F 41.1 °F 42.8 °F 100% 30.14 in 3.0 mi East 3.5 mph - 0.11 in Rain Rain
11:51 AM 42.8 °F 40.1 °F 42.8 °F 100% 30.14 in 3.0 mi East 4.6 mph - N/A Rain Light Rain
12:03 PM 44.6 °F 40.7 °F 42.8 °F 93% 30.13 in 3.0 mi East 6.9 mph - 0.02 in Rain Light Rain
12:11 PM 42.8 °F 39.3 °F 42.8 °F 100% 30.13 in 1.8 mi ESE 5.8 mph - N/A Rain Rain
12:18 PM 42.8 °F 38.6 °F 42.8 °F 100% 30.13 in 2.0 mi East 6.9 mph - 0.04 in Rain Light Rain
12:31 PM 44.6 °F 41.4 °F 42.8 °F 93% 30.12 in 4.0 mi ESE 5.8 mph - 0.05 in Rain Light Rain
12:51 PM 44.1 °F 37.7 °F 42.1 °F 93% 30.12 in 2.5 mi East 12.7 mph 19.6 mph 0.05 in Rain Light Rain
1:26 PM 42.8 °F 38.6 °F 41.0 °F 93% 30.12 in 1.8 mi ESE 6.9 mph - 0.02 in Rain Light Rain
1:34 PM 42.8 °F 39.3 °F 42.8 °F 100% 30.12 in 2.5 mi Variable 5.8 mph - 0.02 in Rain Light Rain
1:36 PM 42.8 °F 39.3 °F 42.8 °F 100% 30.12 in 3.0 mi ESE 5.8 mph - 0.02 in Rain Light Rain
1:43 PM 44.6 °F 42.2 °F 42.8 °F 93% 30.12 in 3.0 mi Variable 4.6 mph - 0.02 in Rain Light Rain
1:46 PM 44.6 °F 39.7 °F 42.8 °F 93% 30.12 in 3.0 mi ESE 9.2 mph - 0.02 in Rain Light Rain
1:51 PM 44.1 °F 40.8 °F 42.1 °F 93% 30.12 in 3.0 mi ESE 5.8 mph - 0.02 in Rain Light Rain
2:22 PM 44.6 °F 42.2 °F 42.8 °F 93% 30.11 in 5.0 mi Variable 4.6 mph - 0.00 in   Overcast
2:29 PM 44.6 °F 40.2 °F 42.8 °F 93% 30.11 in 6.0 mi ESE 8.1 mph - 0.00 in   Overcast
2:51 PM 44.1 °F 41.5 °F 42.1 °F 93% 30.13 in 4.0 mi Variable 4.6 mph - 0.00 in   Overcast
3:13 PM 44.6 °F 40.7 °F 42.8 °F 93% 30.11 in 4.0 mi East 6.9 mph - N/A   Overcast
3:35 PM 44.6 °F 42.2 °F 42.8 °F 93% 30.10 in 5.0 mi ESE 4.6 mph - N/A   Overcast
3:51 PM 44.1 °F 41.5 °F 42.1 °F 93% 30.11 in 4.0 mi Variable 4.6 mph - N/A   Overcast
4:20 PM 44.6 °F 43.1 °F 41.0 °F 87% 30.11 in 10.0 mi Variable 3.5 mph - N/A   Overcast
4:51 PM 45.0 °F 41.2 °F 42.1 °F 90% 30.13 in 7.0 mi ENE 6.9 mph - N/A   Overcast
5:26 PM 44.6 °F 43.1 °F 42.8 °F 93% 30.12 in 2.5 mi ENE 3.5 mph - N/A   Overcast
5:38 PM 44.6 °F 43.1 °F 42.8 °F 93% 30.12 in 4.0 mi ENE 3.5 mph - N/A   Overcast
5:51 PM 44.1 °F 41.5 °F 42.1 °F 93% 30.13 in 4.0 mi ENE 4.6 mph - N/A   Overcast
6:10 PM 44.6 °F 42.2 °F 42.8 °F 93% 30.13 in 10.0 mi ENE 4.6 mph - N/A   Overcast
6:32 PM 44.6 °F 42.2 °F 42.8 °F 93% 30.13 in 9.0 mi ENE 4.6 mph - N/A   Overcast
6:51 PM 44.1 °F 42.5 °F 42.1 °F 93% 30.14 in 10.0 mi NE 3.5 mph - N/A   Overcast
7:25 PM 44.6 °F 43.1 °F 41.0 °F 87% 30.13 in 10.0 mi ENE 3.5 mph - N/A   Overcast
7:46 PM 42.8 °F - 41.0 °F 93% 30.13 in 3.0 mi Calm Calm - N/A   Overcast
7:51 PM 43.0 °F - 42.1 °F 97% 30.14 in 3.0 mi Calm Calm - N/A   Overcast
8:11 PM 42.8 °F 41.1 °F 41.0 °F 93% 30.14 in 9.0 mi ENE 3.5 mph - N/A   Overcast
8:51 PM 43.0 °F 40.3 °F 41.0 °F 93% 30.17 in 10.0 mi NE 4.6 mph - N/A   Overcast
9:51 PM 42.1 °F 40.2 °F 41.0 °F 96% 30.17 in 4.0 mi ENE 3.5 mph - N/A   Overcast
10:09 PM 42.8 °F 40.1 °F 41.0 °F 93% 30.15 in 9.0 mi NE 4.6 mph - N/A   Overcast
10:51 PM 42.1 °F - 41.0 °F 96% 30.17 in 10.0 mi Calm Calm - N/A   Overcast
11:30 PM 42.8 °F 41.1 °F 41.0 °F 93% 30.16 in 10.0 mi North 3.5 mph - N/A   Overcast
11:51 PM 42.1 °F 39.2 °F 39.9 °F 92% 30.17 in 10.0 mi NNE 4.6 mph - N/A   Overcast